| time (UTC) | temp F | wind direction | speed MPH | gust MPH | rain 1hr in | rain 24hr in | rain mn in | humidity % | barometer mb |
| 20260831231017 | 98 | 113 | 8.0 | 12.0 | 0.00 | 0.00 | 0.00 | 33 | 1013.4 |
| 20260831230017 | 98 | 113 | 8.0 | 14.0 | 0.00 | 0.00 | 0.00 | 34 | 1013.3 |
| 20260831225017 | 98 | 113 | 4.0 | 9.0 | 0.00 | 0.00 | 0.00 | 33 | 1013.4 |
| 20260831224017 | 99 | 113 | 7.0 | 12.0 | 0.00 | 0.00 | 0.00 | 33 | 1013.5 |
| 20260831223017 | 99 | 113 | 12.0 | 17.0 | 0.00 | 0.00 | 0.00 | 32 | 1013.5 |
| 20260831222017 | 98 | 158 | 6.0 | 10.0 | 0.00 | 0.00 | 0.00 | 32 | 1013.5 |
| 20260831221017 | 98 | 135 | 8.0 | 13.0 | 0.00 | 0.00 | 0.00 | 33 | 1013.6 |
| 20260831220018 | 98 | 113 | 5.0 | 10.0 | 0.00 | 0.00 | 0.00 | 33 | 1013.7 |
| 20260831215015 | 98 | 113 | 9.0 | 13.0 | 0.00 | 0.00 | 0.00 | 32 | 1013.8 |
| 20260831214017 | 98 | 113 | 9.0 | 14.0 | 0.00 | 0.00 | 0.00 | 33 | 1013.9 |
| 20260831213015 | 99 | 113 | 7.0 | 12.0 | 0.00 | 0.00 | 0.00 | 32 | 1013.9 |
| 20260831212037 | 99 | 113 | 10.0 | 16.0 | 0.00 | 0.00 | 0.00 | 33 | 1014.1 |
| 20260831211015 | 98 | 113 | 7.0 | 13.0 | 0.00 | 0.00 | 0.00 | 34 | 1014.2 |
| 20260831210017 | 99 | 90 | 7.0 | 15.0 | 0.00 | 0.00 | 0.00 | 33 | 1014.3 |
| 20260831205015 | 100 | 68 | 8.0 | 14.0 | 0.00 | 0.00 | 0.00 | 32 | 1014.5 |
| 20260831204017 | 100 | 113 | 10.0 | 20.0 | 0.00 | 0.00 | 0.00 | 33 | 1014.6 |
| 20260831203017 | 99 | 135 | 9.0 | 15.0 | 0.00 | 0.00 | 0.00 | 33 | 1014.9 |
| 20260831202017 | 99 | 158 | 4.0 | 14.0 | 0.00 | 0.00 | 0.00 | 33 | 1014.9 |
| 20260831201017 | 99 | 158 | 5.0 | 19.0 | 0.00 | 0.00 | 0.00 | 35 | 1015.1 |
| 20260831200017 | 98 | 135 | 8.0 | 14.0 | 0.00 | 0.00 | 0.00 | 35 | 1015.2 |
| 20260831195017 | 99 | 90 | 7.0 | 14.0 | 0.00 | 0.00 | 0.00 | 34 | 1015.3 |
| 20260831194017 | 99 | 113 | 8.0 | 13.0 | 0.00 | 0.00 | 0.00 | 35 | 1015.3 |
| 20260831193037 | 98 | 113 | 5.0 | 13.0 | 0.00 | 0.00 | 0.00 | 37 | 1015.5 |
| 20260831192017 | 98 | 135 | 12.0 | 23.0 | 0.00 | 0.00 | 0.00 | 36 | 1015.7 |
| 20260831191037 | 99 | 113 | 9.0 | 17.0 | 0.00 | 0.00 | 0.00 | 37 | 1015.8 |
| 20260831190017 | 99 | 135 | 12.0 | 21.0 | 0.00 | 0.00 | 0.00 | 36 | 1015.9 |
| 20260831185017 | 99 | 113 | 11.0 | 15.0 | 0.00 | 0.00 | 0.00 | 36 | 1016.0 |
| 20260831184017 | 99 | 135 | 10.0 | 15.0 | 0.00 | 0.00 | 0.00 | 36 | 1016.1 |
| 20260831183017 | 99 | 135 | 11.0 | 19.0 | 0.00 | 0.00 | 0.00 | 36 | 1016.1 |
| 20260831182017 | 98 | 135 | 7.0 | 15.0 | 0.00 | 0.00 | 0.00 | 38 | 1016.2 |
| 20260831181017 | 98 | 135 | 11.0 | 20.0 | 0.00 | 0.00 | 0.00 | 37 | 1016.5 |
| 20260831180017 | 98 | 203 | 3.0 | 14.0 | 0.00 | 0.00 | 0.00 | 38 | 1016.6 |
| 20260831175017 | 98 | 158 | 6.0 | 17.0 | 0.00 | 0.00 | 0.00 | 37 | 1016.9 |
| 20260831174017 | 98 | 113 | 3.0 | 10.0 | 0.00 | 0.00 | 0.00 | 38 | 1017.1 |
| 20260831173017 | 97 | 135 | 7.0 | 19.0 | 0.00 | 0.00 | 0.00 | 39 | 1017.2 |
| 20260831172037 | 97 | 135 | 6.0 | 12.0 | 0.00 | 0.00 | 0.00 | 39 | 1017.2 |
| 20260831171037 | 96 | 135 | 8.0 | 14.0 | 0.00 | 0.00 | 0.00 | 40 | 1017.3 |
| 20260831170017 | 96 | 158 | 6.0 | 13.0 | 0.00 | 0.00 | 0.00 | 39 | 1017.4 |
| 20260831165017 | 96 | 135 | 7.0 | 13.0 | 0.00 | 0.00 | 0.00 | 40 | 1017.4 |
| 20260831164017 | 96 | 135 | 2.0 | 13.0 | 0.00 | 0.00 | 0.00 | 40 | 1017.3 |
| 20260831163017 | 95 | 158 | 5.0 | 11.0 | 0.00 | 0.00 | 0.00 | 41 | 1017.3 |
| 20260831162017 | 94 | 158 | 3.0 | 10.0 | 0.00 | 0.00 | 0.00 | 43 | 1017.3 |
| 20260831161037 | 94 | 135 | 3.0 | 11.0 | 0.00 | 0.00 | 0.00 | 44 | 1017.2 |
| 20260831160017 | 93 | 158 | 4.0 | 12.0 | 0.00 | 0.00 | 0.00 | 45 | 1017.2 |
| 20260831155017 | 92 | 158 | 1.0 | 13.0 | 0.00 | 0.00 | 0.00 | 47 | 1017.2 |
| 20260831154017 | 92 | 158 | 3.0 | 10.0 | 0.00 | 0.00 | 0.00 | 50 | 1017.2 |
| 20260831153017 | 91 | 158 | 2.0 | 8.0 | 0.00 | 0.00 | 0.00 | 52 | 1017.1 |
| 20260831152037 | 90 | 158 | 3.0 | 10.0 | 0.00 | 0.00 | 0.00 | 54 | 1017.0 |
| 20260831151037 | 89 | 158 | 1.0 | 5.0 | 0.00 | 0.00 | 0.00 | 56 | 1017.0 |
| 20260831150017 | 88 | 158 | 2.0 | 14.0 | 0.00 | 0.00 | 0.00 | 60 | 1017.0 |
| 20260831145037 | 87 | 225 | 1.0 | 3.0 | 0.00 | 0.00 | 0.00 | 61 | 1016.9 |
| 20260831144017 | 86 | 203 | 1.0 | 6.0 | 0.00 | 0.00 | 0.00 | 63 | 1016.9 |
| 20260831143017 | 85 | 180 | 2.0 | 10.0 | 0.00 | 0.00 | 0.00 | 64 | 1016.9 |
| 20260831142037 | 85 | 158 | 3.0 | 10.0 | 0.00 | 0.00 | 0.00 | 66 | 1016.9 |
| 20260831141017 | 84 | 158 | 2.0 | 11.0 | 0.00 | 0.00 | 0.00 | 68 | 1016.9 |
| 20260831140017 | 83 | 158 | 4.0 | 10.0 | 0.00 | 0.00 | 0.00 | 70 | 1016.9 |
| 20260831135037 | 82 | 158 | 3.0 | 6.0 | 0.00 | 0.00 | 0.00 | 72 | 1016.8 |
| 20260831134017 | 82 | 158 | 4.0 | 12.0 | 0.00 | 0.00 | 0.00 | 73 | 1016.7 |
| 20260831133017 | 81 | 158 | 4.0 | 10.0 | 0.00 | 0.00 | 0.00 | 74 | 1016.6 |
| 20260831132037 | 81 | 158 | 5.0 | 11.0 | 0.00 | 0.00 | 0.00 | 75 | 1016.3 |
| 20260831131017 | 80 | 158 | 5.0 | 13.0 | 0.00 | 0.00 | 0.00 | 76 | 1016.3 |
| 20260831130017 | 79 | 158 | 5.0 | 12.0 | 0.00 | 0.00 | 0.00 | 77 | 1016.2 |
| 20260831125017 | 79 | 158 | 5.0 | 11.0 | 0.00 | 0.00 | 0.00 | 78 | 1016.1 |
| 20260831124017 | 79 | 158 | 3.0 | 8.0 | 0.00 | 0.00 | 0.00 | 78 | 1015.8 |
| 20260831123017 | 78 | 158 | 3.0 | 7.0 | 0.00 | 0.00 | 0.00 | 78 | 1015.8 |
| 20260831122017 | 78 | 158 | 3.0 | 8.0 | 0.00 | 0.00 | 0.00 | 78 | 1015.7 |
| 20260831121117 | 78 | 158 | 3.0 | 6.0 | 0.00 | 0.00 | 0.00 | 77 | 1015.6 |
| 20260831120017 | 78 | 158 | 3.0 | 8.0 | 0.00 | 0.00 | 0.00 | 77 | 1015.5 |
| 20260831115017 | 79 | 158 | 4.0 | 10.0 | 0.00 | 0.00 | 0.00 | 77 | 1015.3 |
| 20260831114017 | 79 | 158 | 4.0 | 11.0 | 0.00 | 0.00 | 0.00 | 77 | 1015.3 |
| 20260831113017 | 79 | 158 | 3.0 | 7.0 | 0.00 | 0.00 | 0.00 | 76 | 1015.2 |
| 20260831112017 | 79 | 158 | 4.0 | 9.0 | 0.00 | 0.00 | 0.00 | 76 | 1015.2 |
| 20260831111017 | 79 | 158 | 3.0 | 7.0 | 0.00 | 0.00 | 0.00 | 75 | 1015.0 |
| 20260831110017 | 79 | 158 | 5.0 | 10.0 | 0.00 | 0.00 | 0.00 | 75 | 1015.0 |
| 20260831105017 | 80 | 158 | 5.0 | 10.0 | 0.00 | 0.00 | 0.00 | 74 | 1015.0 |
| 20260831104017 | 80 | 158 | 2.0 | 6.0 | 0.00 | 0.00 | 0.00 | 73 | 1015.0 |
| 20260831103017 | 80 | 158 | 2.0 | 8.0 | 0.00 | 0.00 | 0.00 | 73 | 1015.0 |
| 20260831102017 | 80 | 158 | 3.0 | 8.0 | 0.00 | 0.00 | 0.00 | 72 | 1015.1 |
| 20260831101017 | 80 | 158 | 4.0 | 9.0 | 0.00 | 0.00 | 0.00 | 72 | 1015.1 |
| 20260831100017 | 81 | 180 | 2.0 | 6.0 | 0.00 | 0.00 | 0.00 | 71 | 1015.0 |
| 20260831095017 | 81 | 158 | 5.0 | 9.0 | 0.00 | 0.00 | 0.00 | 71 | 1015.0 |
| 20260831094037 | 81 | 158 | 4.0 | 10.0 | 0.00 | 0.00 | 0.00 | 70 | 1015.0 |
| 20260831093017 | 81 | 158 | 3.0 | 8.0 | 0.00 | 0.00 | 0.00 | 69 | 1015.0 |
| 20260831092017 | 81 | 158 | 4.0 | 8.0 | 0.00 | 0.00 | 0.00 | 69 | 1014.9 |
| 20260831091017 | 81 | 158 | 3.0 | 8.0 | 0.00 | 0.00 | 0.00 | 68 | 1014.9 |
| 20260831090017 | 81 | 158 | 2.0 | 8.0 | 0.00 | 0.00 | 0.00 | 67 | 1014.8 |
| 20260831085016 | 82 | 158 | 2.0 | 10.0 | 0.00 | 0.00 | 0.00 | 67 | 1014.8 |
| 20260831084036 | 82 | 158 | 2.0 | 8.0 | 0.00 | 0.00 | 0.00 | 66 | 1014.8 |
| 20260831083016 | 82 | 158 | 1.0 | 6.0 | 0.00 | 0.00 | 0.00 | 66 | 1014.7 |
| 20260831082036 | 82 | 158 | 1.0 | 6.0 | 0.00 | 0.00 | 0.00 | 65 | 1014.8 |
| 20260831081116 | 83 | 158 | 2.0 | 9.0 | 0.00 | 0.00 | 0.00 | 64 | 1014.8 |
| 20260831080016 | 83 | 180 | 2.0 | 9.0 | 0.00 | 0.00 | 0.00 | 63 | 1014.9 |
| 20260831075016 | 83 | 158 | 4.0 | 10.0 | 0.00 | 0.00 | 0.00 | 63 | 1014.8 |
| 20260831074016 | 84 | 158 | 2.0 | 13.0 | 0.00 | 0.00 | 0.00 | 62 | 1014.8 |
| 20260831073056 | 84 | 158 | 4.0 | 11.0 | 0.00 | 0.00 | 0.00 | 61 | 1014.8 |
| 20260831072016 | 84 | 158 | 3.0 | 10.0 | 0.00 | 0.00 | 0.00 | 60 | 1014.8 |
| 20260831071056 | 85 | 158 | 4.0 | 13.0 | 0.00 | 0.00 | 0.00 | 58 | 1014.8 |
| 20260831070056 | 85 | 158 | 7.0 | 14.0 | 0.00 | 0.00 | 0.00 | 57 | 1014.8 |
| 20260831065016 | 85 | 158 | 3.0 | 12.0 | 0.00 | 0.00 | 0.00 | 55 | 1014.9 |
| 20260831064036 | 86 | 158 | 5.0 | 12.0 | 0.00 | 0.00 | 0.00 | 54 | 1015.0 |
| 20260831063036 | 86 | 158 | 6.0 | 13.0 | 0.00 | 0.00 | 0.00 | 54 | 1015.0 |
| 20260831062016 | 86 | 158 | 7.0 | 16.0 | 0.00 | 0.00 | 0.00 | 53 | 1015.0 |
| 20260831061015 | 86 | 158 | 8.0 | 12.0 | 0.00 | 0.00 | 0.00 | 52 | 1014.9 |
| 20260831060016 | 86 | 158 | 4.0 | 9.0 | 0.00 | 0.00 | 0.00 | 51 | 1014.9 |
| 20260831055016 | 87 | 158 | 4.0 | 9.0 | 0.00 | 0.00 | 0.00 | 50 | 1015.0 |
| 20260831054016 | 87 | 158 | 7.0 | 12.0 | 0.00 | 0.00 | 0.00 | 50 | 1015.0 |
| 20260831053016 | 87 | 158 | 6.0 | 11.0 | 0.00 | 0.00 | 0.00 | 49 | 1014.9 |
| 20260831052016 | 87 | 158 | 6.0 | 14.0 | 0.00 | 0.00 | 0.00 | 48 | 1014.7 |
| 20260831051016 | 88 | 158 | 6.0 | 10.0 | 0.00 | 0.00 | 0.00 | 47 | 1014.7 |
| 20260831050016 | 88 | 158 | 5.0 | 10.0 | 0.00 | 0.00 | 0.00 | 47 | 1014.8 |
| 20260831045016 | 88 | 158 | 5.0 | 9.0 | 0.00 | 0.00 | 0.00 | 47 | 1014.7 |
| 20260831044016 | 88 | 135 | 6.0 | 9.0 | 0.00 | 0.00 | 0.00 | 47 | 1014.6 |
| 20260831043016 | 87 | 158 | 6.0 | 11.0 | 0.00 | 0.00 | 0.00 | 47 | 1014.6 |
| 20260831042016 | 87 | 158 | 5.0 | 11.0 | 0.00 | 0.00 | 0.00 | 48 | 1014.5 |
| 20260831040016 | 86 | 135 | 3.0 | 7.0 | 0.00 | 0.00 | 0.00 | 48 | 1014.5 |
| 20260831035016 | 86 | 135 | 2.0 | 5.0 | 0.00 | 0.00 | 0.00 | 48 | 1014.4 |
| 20260831034016 | 86 | 135 | 2.0 | 3.0 | 0.00 | 0.00 | 0.00 | 47 | 1014.2 |
| 20260831033016 | 87 | 135 | 1.0 | 3.0 | 0.00 | 0.00 | 0.00 | 45 | 1014.1 |
| 20260831032016 | 88 | 135 | 3.0 | 4.0 | 0.00 | 0.00 | 0.00 | 45 | 1014.1 |
| 20260831031015 | 88 | 158 | 1.0 | 3.0 | 0.00 | 0.00 | 0.00 | 44 | 1014.0 |
| 20260831030016 | 89 | 158 | 2.0 | 6.0 | 0.00 | 0.00 | 0.00 | 43 | 1013.9 |
| 20260831025016 | 89 | 135 | 3.0 | 5.0 | 0.00 | 0.00 | 0.00 | 43 | 1013.7 |
| 20260831024016 | 89 | 158 | 4.0 | 6.0 | 0.00 | 0.00 | 0.00 | 42 | 1013.6 |
| 20260831023016 | 89 | 135 | 3.0 | 6.0 | 0.00 | 0.00 | 0.00 | 42 | 1013.4 |
| 20260831022016 | 89 | 158 | 2.0 | 5.0 | 0.00 | 0.00 | 0.00 | 41 | 1013.3 |
| 20260831021016 | 90 | 158 | 1.0 | 3.0 | 0.00 | 0.00 | 0.00 | 40 | 1013.2 |
| 20260831020015 | 90 | 0.0 | 2.0 | 0.00 | 0.00 | 0.00 | 39 | 1013.0 | |
| 20260831015016 | 91 | 0.0 | 1.0 | 0.00 | 0.00 | 0.00 | 38 | 1013.0 | |
| 20260831014055 | 92 | 158 | 2.0 | 5.0 | 0.00 | 0.00 | 0.00 | 38 | 1012.6 |
| 20260831013016 | 92 | 158 | 2.0 | 5.0 | 0.00 | 0.00 | 0.00 | 37 | 1012.6 |
| 20260831012016 | 93 | 158 | 3.0 | 6.0 | 0.00 | 0.00 | 0.00 | 35 | 1012.6 |
| 20260831011016 | 93 | 158 | 3.0 | 8.0 | 0.00 | 0.00 | 0.00 | 35 | 1012.5 |
| 20260831010056 | 94 | 158 | 2.0 | 5.0 | 0.00 | 0.00 | 0.00 | 34 | 1012.5 |
| 20260831005015 | 95 | 158 | 3.0 | 6.0 | 0.00 | 0.00 | 0.00 | 34 | 1012.4 |
| 20260831004016 | 95 | 158 | 4.0 | 8.0 | 0.00 | 0.00 | 0.00 | 34 | 1012.5 |
| 20260831003016 | 96 | 135 | 3.0 | 5.0 | 0.00 | 0.00 | 0.00 | 33 | 1012.4 |
| 20260831002016 | 96 | 135 | 5.0 | 9.0 | 0.00 | 0.00 | 0.00 | 32 | 1012.5 |
| 20260831001036 | 96 | 135 | 6.0 | 10.0 | 0.00 | 0.00 | 0.00 | 32 | 1012.4 |
| 20260831000015 | 97 | 113 | 8.0 | 12.0 | 0.00 | 0.00 | 0.00 | 31 | 1012.6 |
| 20260830235015 | 97 | 135 | 7.0 | 11.0 | 0.00 | 0.00 | 0.00 | 31 | 1012.5 |
| 20260830234016 | 97 | 135 | 8.0 | 13.0 | 0.00 | 0.00 | 0.00 | 31 | 1012.6 |
| 20260830233016 | 98 | 135 | 9.0 | 16.0 | 0.00 | 0.00 | 0.00 | 32 | 1012.7 |
| 20260830232016 | 98 | 135 | 10.0 | 15.0 | 0.00 | 0.00 | 0.00 | 32 | 1012.7 |